User: anonymous   Login
Location: Les Coudrans
(46.1056°N, 1.1158°W)
Time: 17:21:37
(UTC+00:00)
Language:

USA 306 - Orbit

View from above orbital plane
View from above orbital plane
View from above satellite
View from above satellite

Ground track
Ground track

The orbit data is extracted from the following two-line orbital elements,

1 45874U 20046B   21125.91041116 0.00002300  00000-0  18844-3 0    00
2 45874  53.9770  89.2987 0007086   1.5520 358.4479 14.98814035    01
Epoch (UTC): 05 May 2021 21:50:59
Eccentricity: 0.0007086
inclination: 53.9770°
perigee height: 565 km
apogee height: 575 km
right ascension of ascending node: 89.2987°
argument of perigee: 1.5520°
revolutions per day: 14.98814035
mean anomaly at epoch: 358.4479°
orbit number at epoch: 0

The dashed part of the orbit path shows where the satellite is in the earth's shadow,  

DLR